Regional Weather Roundup
Issued by NWS Burlington, VT

Home | Current Version | Previous Version | Text Only | Print | Product List | Glossary On
Versions: 1 2 3 4 5 6 7 8 9 10 11 12 13 14 15 16 17 18 19 20 21 22 23 24 25 26 27 28 29 30 31 32 33 34 35 36 37 38 39 40 41 42 43 44 45 46 47 48 49 50
000
ASUS41 KBTV 202330
RWRBTV
VERMONT REGIONAL WEATHER ROUNDUP
NATIONAL WEATHER SERVICE BURLINGTON VT
600 PM EST SAT JAN 20 2018

NOTE: "FAIR" INDICATES FEW OR NO CLOUDS BELOW 12,000 FEET WITH NO
SIGNIFICANT WEATHER AND/OR OBSTRUCTIONS TO VISIBILITY.

* THESE REPORTS ARE NOT UNDER NWS QUALITY CONTROL AND/OR DO NOT
  REPORT WEATHER SUCH AS PRECIPITATION AND FOG.

VTZ001>019-210000-
_____VERMONT_____


CITY           SKY/WX    TMP DP  RH WIND       PRES   REMARKS
BURLINGTON     MOCLDY    42  27  55 W9        29.83R
MONTPELIER     FAIR      38  27  64 W16G30    29.84R WCI  29
MORRISVILLE    CLOUDY    38  27  64 SW8G17    29.82R
ST. JOHNSBURY*   N/A     38  29  70 MISG      29.78R
LYNDONVILLE*   CLOUDY    37  28  69 SW7G20    29.79R WCI  31
MIDDLEBURY*    FAIR      32  29  90 CALM      29.88R
RUTLAND*       FAIR      41  27  57 NW8       29.86R
SPRINGFIELD    FAIR      43  28  55 W21G31    29.81R
HIGHGATE*      CLOUDY    38  30  71 SW5       29.82R
NEWPORT*       CLOUDY    37  28  68 SW16      29.79R WCI  28
BENNINGTON     FAIR      41  26  55 W9        29.89R
SUTTON*          N/A     34 N/A N/A MISG        N/A
ISLAND POND*     N/A     37 N/A N/A W10         N/A  WCI  30
GALLUP MILLS*    N/A     36 N/A N/A MISG        N/A
UNION VILLAGE*   N/A     30 N/A N/A MISG        N/A
MT. MANSFIELD*   N/A     28 N/A N/A W29G49      N/A  WCI  13

_____LAKE CHAMPLAIN_____


CITY           SKY/WX    TMP DP  RH WIND       PRES   REMARKS
BURTON ISLAND*   N/A     39  32  75 SW14G20     N/A  WCI  31
COLCHESTER RF*   N/A     41  30  65 W15         N/A
DIAMOND ISL*     N/A     43  30  61 S9          N/A

$$

NYZ007-026>031-035-052-083-087-210000-
_____NORTHERN NEW YORK_____


CITY           SKY/WX    TMP DP  RH WIND       PRES   REMARKS
PLATTSBURGH    FAIR      40  28  62 SW7       29.83R
SARANAC LAKE   CLOUDY    34  29  82 SW13G23   29.83R WCI  25
MASSENA        MOCLDY    39  32  76 SW17      29.86R WCI  30
OGDENSBURG*    FAIR      38  32  80 SW10G17   29.89R WCI  30
POTSDAM*       CLOUDY    37  30  75 SW12      29.86R WCI  30
STARK FALLS*     N/A     34 N/A N/A SW10        N/A  WCI  26
WATERTOWN      FAIR      36  32  85 SW13      29.93R WCI  27
FT DRUM        PTCLDY    36  29  78 W14G21    29.91R WCI  27
ALBANY         MOCLDY    41  27  57 NW8       29.93R
GLENS FALLS    FAIR      37  28  70 W3        29.89R

$$
NHZ002-005-011-210000-
_____NEW HAMPSHIRE_____


CITY           SKY/WX    TMP DP  RH WIND       PRES   REMARKS
LEBANON        FAIR      35  28  75 CALM      29.81R
KEENE          FAIR      37  27  67 S6        29.84R
MT WASHINGTON  FOG       16  16 100 W77G92      N/A  VSB 1/16WCI -13
PLYMOUTH       FAIR      42  29  60 W9        29.80R
WHITEFIELD     CLOUDY    39  27  62 SW8       29.78R

$$

_____REGIONAL QUEBEC LOCATIONS_____


CITY           SKY/WX    TMP DP  RH WIND       PRES   REMARKS
MONTREAL       MOCLDY    39  30  70 W21G30    29.80R WCI  29
QUEBEC CITY    MOCLDY    32  21  64 W8G23     29.69R WCI  25
SHERBROOKE     CLOUDY    37  28  70 W14G29    29.74R WCI  29

_____REGIONAL ONTARIO LOCATIONS_____


CITY           SKY/WX    TMP DP  RH WIND       PRES   REMARKS
OTTAWA         MOCLDY    39  28  65 W8        29.82R

______KEY______
VSB  - VISIBILITY IN MILES
WCI  - WIND CHILL INDEX
HX   - HEAT INDEX
$$
NNNN




USA.gov is the U.S. government's official web portal to all federal, state and local government web resources and services.